This is the latest recevied weather packets stored in our database for station/object IW2LSY-11. If no packets are shown the sender has not sent any weather packets the latest 10 day(s).
| Time | Temp. | Humidity | Pressure | Rain* | Wind** | Luminosity | Snow |
|---|---|---|---|---|---|---|---|
| 1777472407 | 19.44° C | 56% | 1017.2 hPa | - | - | 351 W/m² | - |
| 1777471808 | 20.56° C | 47% | 1017.2 hPa | - | - | 353 W/m² | - |
| 1777471209 | 20.56° C | 49% | 1017.2 hPa | - | - | 353 W/m² | - |
| 1777470609 | 20° C | 46% | 1017.2 hPa | - | - | 354 W/m² | - |
| 1777470009 | 20° C | 43% | 1017.3 hPa | - | - | 354 W/m² | - |
| 1777469408 | 18.33° C | 43% | 1017.5 hPa | - | - | 355 W/m² | - |
| 1777468809 | 20° C | 48% | 1017.5 hPa | - | - | 355 W/m² | - |
| 1777468208 | 19.44° C | 47% | 1017.6 hPa | - | - | 355 W/m² | - |
| 1777467608 | 18.89° C | 50% | 1017.8 hPa | - | - | 355 W/m² | - |
| 1777467008 | 19.44° C | 52% | 1017.9 hPa | - | - | 356 W/m² | - |
| 1777466408 | 18.89° C | 51% | 1018 hPa | - | - | 356 W/m² | - |
| 1777465809 | 18.33° C | 56% | 1018.1 hPa | - | - | 356 W/m² | - |
| 1777465210 | 18.33° C | 61% | 1018.1 hPa | - | - | 356 W/m² | - |
| 1777464611 | 17.78° C | 61% | 1018.2 hPa | - | - | 357 W/m² | - |
| 1777464011 | 17.22° C | 60% | 1018.1 hPa | - | - | 358 W/m² | - |
| 1777463412 | 17.22° C | 60% | 1018.2 hPa | - | - | 358 W/m² | - |
| 1777462812 | 17.22° C | 62% | 1018.1 hPa | - | - | 358 W/m² | - |
| 1777462212 | 16.11° C | 69% | 1018.2 hPa | - | - | 359 W/m² | - |
| 1777461613 | 16.67° C | 68% | 1018.2 hPa | - | - | 360 W/m² | - |
| 1777461013 | 17.78° C | 64% | 1018.3 hPa | - | - | 360 W/m² | - |
| 1777460414 | 16.67° C | 66% | 1018.4 hPa | - | - | 360 W/m² | - |
| 1777459815 | 16.67° C | 69% | 1018.5 hPa | - | - | 361 W/m² | - |
| 1777459215 | 16.67° C | 71% | 1018.6 hPa | - | - | 361 W/m² | - |
| 1777458615 | 16.67° C | 67% | 1018.7 hPa | - | - | 362 W/m² | - |
| 1777458015 | 16.11° C | 69% | 1018.7 hPa | - | - | 362 W/m² | - |
* Rain since midnight (hover to see other rain measurements)
** Current wind speed in m/s (hover to see current wind gust speed)